[[{"header":{"parameterUnit":"m.s-1","parameterCategory":1,"la1":30.2991,"la2":30.254,"lo1":-89.0895,"lo2":-89.0444,"dy":0.0017,"dx":0.0017,"nx":28,"ny":28,"refTime":"2025-06-06T21:00:00:Z","depth":0,"parameterNumber":2,"parameterNumberName":"U-component_of_WINDS"},"data":[0,0,0,0,0,0,0,0,0,0,0,0,0,0,0,0,0,0,0,0,0,0,0,0,0,0,0,0,0,0,0,0,0,0,0,0,0,0,0,0,0,0,0,0,0,0,0,0,0,0,0,0,0,0,0,0,0,0,4.3044,4.3045,0,4.3121,4.3122,4.3123,4.3099,4.3097,4.3096,4.3094,4.3176,4.3179,4.3183,0,0,0,0,0,0,0,0,0,0,0,0,0,4.2877,4.2881,4.3044,4.3045,4.3046,4.3121,4.3122,4.3123,4.3099,4.3097,4.3095,4.3093,4.3174,4.3179,4.3183,0,0,0,0,0,0,0,0,0,0,0,0,0,4.2952,4.2882,4.3044,4.3043,4.3044,4.3121,4.3122,4.3124,4.31,4.3097,4.3095,4.3093,4.3173,4.3178,4.3184,4.3267,0,0,4.3201,4.3203,0,0,0,0,0,0,0,0,4.2948,4.2958,4.3042,4.3043,4.3044,4.3098,4.3093,4.3172,4.31,4.3079,4.3094,4.3091,4.3152,4.3159,4.3179,4.3271,4.3275,4.3201,4.3205,4.3207,4.3209,0,0,0,0,0,0,0,4.2942,4.2954,4.3075,4.3043,4.3045,4.3039,4.3047,4.3108,4.3128,4.308,4.3079,4.3088,4.3152,4.3174,4.3181,4.3276,4.3201,4.3206,4.3209,4.3212,4.3439,4.3442,0,0,0,0,0,0,4.2936,4.295,4.3072,4.3077,4.2989,4.3044,4.3053,4.3083,4.3127,4.3132,4.309,4.3087,4.3165,4.3174,4.3183,4.3283,4.3207,4.3212,4.3215,4.3437,4.344,4.3443,0,0,0,0,0,0,4.2933,4.2948,4.3069,4.3013,4.3028,4.305,4.3084,4.3086,4.3108,4.3135,4.3138,4.3108,4.3164,4.3176,4.3246,4.3285,4.3215,4.322,4.3433,4.3438,4.3441,4.3483,0,0,0,0,0,0,4.2928,4.2946,4.2978,4.3014,4.3031,4.313,4.3086,4.3089,4.3117,4.3113,4.3153,4.3157,4.3163,4.3238,4.3252,4.3292,4.3224,4.343,4.3435,4.344,4.3478,4.3488,4.3496,0,0,0,0,0,4.2922,4.2987,4.298,4.2994,4.3071,4.3132,4.3142,4.3147,4.312,4.3152,4.317,4.3156,4.3279,4.3245,4.3261,4.3303,4.3427,4.3434,4.344,4.3474,4.3486,4.3496,0,0,0,0,0,0,4.2956,4.2992,4.2984,4.3062,4.3094,4.3128,4.3168,4.3159,4.32,4.3195,4.32,4.3209,4.3281,4.3299,4.3261,4.3386,4.335,4.3359,4.3371,4.3382,4.3391,4.3384,4.3229,0,0,0,0,0,4.2972,4.3018,4.3048,4.3114,4.313,4.3147,4.3174,4.3174,4.3208,4.3222,4.3244,4.3278,4.3324,4.3354,4.3399,4.3481,4.3489,4.3518,4.3527,4.3534,4.3542,4.3586,4.3599,4.3463,4.3463,4.3463,0,0,4.3006,4.3032,4.3061,4.3121,4.3146,4.3194,4.3158,4.3211,4.3246,4.323,4.3297,4.3315,4.3353,4.343,4.3465,4.3447,4.3582,4.3542,4.3548,4.3552,4.3594,4.3607,4.3618,4.3467,4.3466,4.3466,0,0,4.3093,4.3117,4.3174,4.32,4.3238,4.3249,4.3262,4.3298,4.3309,4.3376,4.3365,4.3408,4.3488,4.3515,4.3539,4.3636,4.3625,4.3651,4.3698,4.374,4.3751,4.3761,4.3794,4.3806,4.3659,4.3659,4.3659,0,4.3131,4.3202,4.3205,4.3258,4.3285,4.3272,4.333,4.3355,4.3406,4.3425,4.3405,4.3504,4.3529,4.3611,4.3635,4.3655,4.3671,4.3645,4.3749,4.3759,4.3768,4.3799,4.3812,4.3661,4.3661,4.3661,4.3661,0,4.3246,4.3295,4.3337,4.3385,4.3417,4.3473,4.3485,4.3517,4.3515,4.3528,4.3597,4.3626,4.3675,4.3696,4.3695,4.3778,4.3766,4.3748,4.3711,4.3783,4.3813,4.3825,4.3665,4.3664,4.3664,4.3663,0,0,4.3354,4.3404,4.3419,4.344,4.3481,4.352,4.3575,4.3622,4.3649,4.3685,4.3731,4.3799,4.3782,4.381,4.3812,4.385,4.3924,4.3827,4.3828,4.3843,4.4015,4.4027,4.4041,4.3917,4.3919,4.3921,4.4011,0,4.3442,4.3538,4.3543,4.363,4.3675,4.3664,4.3712,4.3743,4.3756,4.3797,4.3813,4.386,4.3835,4.3852,4.3889,4.3907,4.3958,4.3901,4.3959,4.3961,4.3948,4.4057,4.407,4.4153,4.4023,4.4025,4.4027,0,4.3558,4.3596,4.3687,4.3721,4.3741,4.3784,4.3827,4.3867,4.3901,4.3909,4.394,4.3937,4.3993,4.3956,4.4034,4.3995,4.4019,4.4032,4.4035,4.4039,4.3997,4.4062,4.418,4.4192,4.4045,4.4044,4.4043,0,4.3626,4.37,4.3764,4.3783,4.3825,4.3855,4.3874,4.3906,4.3934,4.3973,4.3991,4.4037,4.4061,4.4096,4.4106,4.4078,4.4183,4.4147,4.419,4.419,4.4211,4.4209,4.4333,4.423,4.423,4.423,4.423,0,4.3723,4.3779,4.3795,4.3834,4.3896,4.3902,4.3964,4.3981,4.401,4.4052,4.4046,4.4086,4.4097,4.4139,4.4148,4.421,4.4222,4.4229,4.423,4.4228,4.4227,4.4243,4.4237,4.4233,4.4233,4.4232,4.4231,0,4.3808,4.3821,4.389,4.3924,4.3934,4.3978,4.4007,4.4045,4.4058,4.4111,4.4125,4.4145,4.4195,4.4208,4.4268,4.4273,4.4346,4.4343,4.4334,4.4333,4.4374,4.437,4.4511,4.4529,4.4417,4.4418,4.4419,0,4.3868,4.391,4.3949,4.3976,4.3996,4.4041,4.4069,4.4078,4.4107,4.415,4.4183,4.4231,4.427,4.4349,4.437,4.4415,4.4412,4.4458,4.4419,4.4415,4.441,4.4407,4.441,4.4465,4.4466,4.4467,4.4468,0,4.3972,4.3977,4.4018,4.4061,4.4095,4.4129,4.4163,4.4186,4.4199,4.4233,4.4283,4.4313,4.4373,4.4421,4.4467,4.4487,4.4479,4.4481,4.4493,4.449,4.4482,4.4485,4.4352,4.4477,4.4476,4.4475,4.4475,4.4475,4.4045,4.4082,4.4115,4.416,4.4186,4.4217,4.4254,4.4271,4.4313,4.4362,4.4365,4.4419,4.4452,4.4513,4.4536,4.4578,4.4564,4.4582,4.4586,4.459,4.4592,4.4477,4.4587,4.4586,4.4586,4.4586,4.4586,0,4.4148,4.4168,4.421,4.4256,4.4292,4.4283,4.4319,4.435,4.4397,4.4429,4.4467,4.4524,4.4571,4.4595,4.4641,4.4671,4.4668,4.4682,4.4679,4.4684,4.4603,4.4587,4.4683,4.4683,4.4683,4.4683,4.4683,4.4683,4.4205,4.4266,4.4275,4.4349,4.4369,4.4421,4.4443,4.4471,4.4497,4.456,4.4598,4.4614,4.4643,4.4691,4.4733,4.474,4.4756,4.4771,4.4775,4.4699,4.4689,4.468,4.4665,4.4775,4.4776,4.4852,4.4853,4.4853]},{"header":{"parameterUnit":"m.s-1","parameterCategory":1,"la1":30.2991,"la2":30.254,"lo1":-89.0895,"lo2":-89.0444,"dy":0.0017,"dx":0.0017,"nx":28,"ny":28,"refTime":"2025-06-06T21:00:00:Z","depth":0,"parameterNumber":3,"parameterNumberName":"V-component_of_WINDS"},"data":[0,0,0,0,0,0,0,0,0,0,0,0,0,0,0,0,0,0,0,0,0,0,0,0,0,0,0,0,0,0,0,0,0,0,0,0,0,0,0,0,0,0,0,0,0,0,0,0,0,0,0,0,0,0,0,0,0,0,1.997,1.997,0,1.9977,1.9977,1.9977,1.9952,1.9951,1.995,1.995,1.9956,1.9957,1.9958,0,0,0,0,0,0,0,0,0,0,0,0,0,1.9935,1.9936,1.997,1.997,1.997,1.9977,1.9977,1.9977,1.9952,1.9951,1.995,1.9949,1.9956,1.9957,1.9958,0,0,0,0,0,0,0,0,0,0,0,0,0,1.9947,1.9936,1.997,1.9959,1.9958,1.9977,1.9977,1.9977,1.9952,1.9951,1.995,1.9949,1.9956,1.9957,1.9958,1.9989,0,0,1.9962,1.9963,0,0,0,0,0,0,0,0,1.9946,1.9948,1.996,1.996,1.9958,1.9962,1.9967,1.9981,1.9953,1.9954,1.995,1.9948,1.9959,1.996,1.9964,1.9989,1.9989,1.9962,1.9963,1.9964,1.9964,0,0,0,0,0,0,0,1.9946,1.9948,1.9973,1.9961,1.9959,1.9953,1.9953,1.997,1.9963,1.9954,1.9952,1.9953,1.9958,1.9963,1.9964,1.9989,1.9962,1.9963,1.9964,1.9965,2.004,2.0041,0,0,0,0,0,0,1.9946,1.9947,1.9973,1.9973,1.995,1.9955,1.9955,1.9962,1.9963,1.9962,1.9954,1.9952,1.9961,1.9962,1.9964,2.0,1.9964,1.9965,1.9966,2.0039,2.004,2.0041,0,0,0,0,0,0,1.9946,1.9949,1.9972,1.996,1.9962,1.9956,1.9965,1.9963,1.9967,1.9963,1.9962,1.996,1.996,1.9962,1.9983,2.0,1.9965,1.9967,2.0037,2.0039,2.0041,2.0072,0,0,0,0,0,0,1.9945,1.9949,1.996,1.996,1.9963,1.9991,1.9966,1.9964,1.997,1.9967,1.9968,1.9967,1.9959,1.9981,1.9984,2.0001,1.9968,2.0036,2.0038,2.004,2.0069,2.0074,2.0079,0,0,0,0,0,1.9944,1.9969,1.9961,1.9964,1.9978,1.9992,1.9994,1.9985,1.9971,1.9983,1.998,1.9967,1.9997,1.9983,1.9987,2.0004,2.0034,2.0037,2.004,2.0067,2.0073,2.0079,0,0,0,0,0,0,1.9971,1.9968,1.996,1.9986,1.999,1.9988,2.0002,1.9992,2.0,1.9997,1.9985,1.9985,2.0008,2.0008,1.9992,2.0033,2.0013,2.0017,2.0033,2.0039,2.0044,2.0043,1.9969,0,0,0,0,0,1.998,1.9992,1.999,2.0013,2.0015,2.0009,2.0015,2.0007,2.0011,2.0012,2.0011,2.0014,2.0025,2.0032,2.0041,2.0069,2.0069,2.0082,2.0087,2.0091,2.0094,2.0109,2.0115,2.005,2.005,2.005,0,0,1.9999,1.9999,2.0007,2.0018,2.002,2.0033,2.001,2.0025,2.0034,2.0014,2.0034,2.0033,2.0036,2.0061,2.0071,2.0061,2.0112,2.0095,2.0098,2.0099,2.0113,2.0119,2.0124,2.0052,2.0052,2.0051,0,0,2.004,2.0041,2.0061,2.0063,2.0066,2.0062,2.0067,2.0067,2.0066,2.0085,2.007,2.0081,2.0099,2.0102,2.0106,2.0148,2.0136,2.0151,2.0177,2.0191,2.0196,2.0201,2.0216,2.0222,2.0155,2.0155,2.0155,0,2.0063,2.0082,2.0072,2.0088,2.0093,2.0075,2.0095,2.0098,2.0104,2.0108,2.0096,2.0119,2.012,2.0144,2.0155,2.0158,2.0163,2.0151,2.0197,2.0201,2.0205,2.0219,2.0225,2.0156,2.0156,2.0156,2.0156,0,2.011,2.0123,2.0139,2.0145,2.0152,2.017,2.0162,2.017,2.0162,2.0159,2.0179,2.018,2.0189,2.0194,2.0186,2.0218,2.0211,2.0199,2.0178,2.0213,2.0226,2.0232,2.0159,2.0158,2.0158,2.0157,0,0,2.0168,2.0169,2.0175,2.0178,2.018,2.0191,2.0207,2.0216,2.0223,2.0228,2.0242,2.0258,2.0246,2.025,2.0243,2.0255,2.0289,2.0241,2.0241,2.025,2.0324,2.0334,2.034,2.0281,2.0282,2.0283,2.0323,0,2.0208,2.0237,2.0229,2.0258,2.027,2.0254,2.0269,2.0272,2.0269,2.0279,2.0276,2.0287,2.0271,2.0273,2.0285,2.0282,2.0304,2.0279,2.0294,2.0294,2.0294,2.0347,2.0358,2.0396,2.0329,2.0329,2.033,0,2.0259,2.0267,2.0297,2.0297,2.0302,2.0316,2.0323,2.0333,2.0336,2.0333,2.0338,2.0328,2.0344,2.0324,2.0346,2.033,2.0335,2.0335,2.0336,2.0337,2.0314,2.035,2.0408,2.0414,2.0338,2.0337,2.0337,0,2.0299,2.0316,2.0337,2.034,2.0341,2.035,2.0351,2.0353,2.0359,2.0366,2.037,2.0378,2.0383,2.0389,2.0382,2.0367,2.0405,2.0384,2.0403,2.0403,2.0412,2.0412,2.0472,2.0415,2.0415,2.0415,2.0415,0,2.0345,2.0364,2.0355,2.0367,2.0388,2.0378,2.0399,2.0398,2.04,2.0412,2.0398,2.041,2.0399,2.0409,2.0403,2.0423,2.0425,2.0423,2.0421,2.0424,2.0425,2.0428,2.0425,2.0416,2.0416,2.0416,2.0416,0,2.0393,2.0387,2.0409,2.0408,2.0408,2.0424,2.0423,2.0435,2.0431,2.0446,2.0449,2.0444,2.0455,2.0448,2.046,2.0456,2.0481,2.0476,2.048,2.0479,2.0499,2.0497,2.0563,2.0572,2.051,2.051,2.0511,0,2.0423,2.0437,2.0438,2.0446,2.0447,2.0459,2.0465,2.0456,2.0463,2.0467,2.0478,2.0489,2.0497,2.0516,2.0513,2.0522,2.0516,2.0539,2.0518,2.052,2.0517,2.0516,2.0518,2.0543,2.0544,2.0545,2.0545,0,2.0476,2.0473,2.0482,2.0491,2.0499,2.0505,2.051,2.0517,2.0507,2.0516,2.0528,2.0534,2.0546,2.0557,2.0564,2.0565,2.0554,2.0552,2.0557,2.056,2.0562,2.0562,2.0492,2.055,2.055,2.055,2.0549,2.0549,2.0516,2.0528,2.0531,2.0542,2.0545,2.055,2.0561,2.0559,2.0569,2.0578,2.0572,2.0586,2.0588,2.0597,2.06,2.061,2.0601,2.0608,2.061,2.0612,2.0615,2.0561,2.0612,2.0611,2.0611,2.0611,2.0611,0,2.0569,2.057,2.058,2.0588,2.0597,2.0586,2.0591,2.0599,2.0612,2.0615,2.0623,2.0637,2.0647,2.0645,2.0654,2.0663,2.0658,2.0665,2.0665,2.0665,2.0622,2.0617,2.0669,2.0669,2.0669,2.0669,2.0669,2.0669,2.0598,2.0618,2.0615,2.0636,2.0637,2.0651,2.0654,2.0659,2.0662,2.0678,2.0686,2.0685,2.0686,2.0695,2.0704,2.0703,2.0707,2.0717,2.0714,2.0674,2.0668,2.0663,2.0658,2.0717,2.0718,2.0755,2.0756,2.0756]}]]